Date String (YYYY-MM-DD hh:mm:ss) UTC,Instrument flags,Ambient pressure (hPa),Sample flow (lpm),Bypass flow (lpm),Sample temperature (°C),Ambient temperature (°C),ASC tube jacket temperature (°C),LED temperature (°C),Box temperature (°C),Sample RH (%),Span deviation,Mass concentration (μg/m³),Mass concentration (μg/m³),Mass concentration (μg/m³)
DateTimeUTC,F1_M11,P_M11,Q1_M11,Q2_M11,T1_M11,T2_M11,T3_M11,T4_M11,T5_M11,U1_M11,ZSPAN_M11,X0_M11,X2_M11,X1_M11
2021-10-18 02:00:00,,0825.1,4.99,0.00,29.9,28.9,00.0,38.9,31.7,09.5,0000.5,0009.85,0004.60,0003.78
2021-10-18 02:01:00,,0825.1,5.00,0.00,29.9,29.0,00.0,38.9,31.7,09.6,-000.1,0009.29,0004.57,0003.76
2021-10-18 02:02:00,,0825.1,5.00,0.00,29.9,29.0,00.0,38.9,31.7,09.5,0000.0,0008.86,0004.50,0003.72
2021-10-18 02:03:00,,0825.1,5.02,0.00,29.9,29.0,00.0,38.9,31.7,09.5,0000.6,0008.80,0004.50,0003.69
2021-10-18 02:04:00,,0825.0,5.01,0.00,30.0,29.1,00.0,39.0,31.8,09.4,0000.8,0008.79,0004.51,0003.70
2021-10-18 02:05:00,,0825.0,4.99,0.00,30.0,29.1,00.0,39.0,31.8,09.4,0000.8,0008.57,0004.50,0003.70
2021-10-18 02:06:00,,0825.0,5.01,0.00,30.0,29.1,00.0,39.0,31.8,09.4,0000.8,0008.62,0004.53,0003.71
2021-10-18 02:07:00,,0825.0,5.00,0.00,30.0,29.1,00.0,39.0,31.8,09.3,0001.0,0008.76,0004.56,0003.73
2021-10-18 02:08:00,,0825.0,4.99,0.00,30.0,29.1,00.0,39.0,31.8,09.3,0000.6,0009.02,0004.55,0003.73
2021-10-18 02:09:00,,0825.0,5.00,0.00,30.0,29.1,00.0,39.0,31.8,09.3,0000.5,0010.10,0004.59,0003.74
2021-10-18 02:10:00,,0825.0,4.99,0.00,30.0,29.1,00.0,39.0,31.8,09.3,0000.3,0010.32,0004.57,0003.76
2021-10-18 02:11:00,,0825.0,4.99,0.00,30.1,29.1,00.0,39.1,31.8,09.3,0000.8,0009.99,0004.47,0003.72
2021-10-18 02:12:00,,0825.0,5.02,0.00,30.1,29.1,00.0,39.1,31.8,09.3,0000.7,0010.30,0004.45,0003.71
2021-10-18 02:13:00,,0825.0,4.99,0.00,30.1,29.1,00.0,39.1,31.8,09.3,0001.1,0010.54,0004.47,0003.73
2021-10-18 02:14:00,,0825.0,5.01,0.00,30.1,29.1,00.0,39.1,31.8,09.3,0000.0,0010.60,0004.43,0003.75
2021-10-18 02:15:00,,0824.9,5.00,0.00,30.1,29.1,00.0,39.1,31.8,09.2,-000.2,0010.73,0004.38,0003.72
2021-10-18 02:16:00,,0824.9,5.01,0.00,30.1,29.1,00.0,39.1,31.9,09.1,-000.8,0010.67,0004.34,0003.68
2021-10-18 02:17:00,,0824.9,4.99,0.00,30.1,29.1,00.0,39.1,31.9,09.1,0000.0,0010.49,0004.27,0003.64
2021-10-18 02:18:00,,0824.9,5.00,0.00,30.1,29.1,00.0,39.1,31.8,09.1,-000.1,0010.71,0004.21,0003.60
2021-10-18 02:19:00,,0824.9,5.00,0.00,30.1,29.1,00.0,39.2,31.9,09.1,-000.7,0010.87,0004.19,0003.59
2021-10-18 02:20:00,,0824.9,5.00,0.00,30.1,29.1,00.0,39.2,31.9,09.2,-001.0,0009.73,0004.14,0003.59
2021-10-18 02:21:00,,0824.9,4.99,0.00,30.2,29.1,00.0,39.2,31.9,09.2,-001.2,0009.59,0004.16,0003.59
2021-10-18 02:22:00,,0824.9,5.02,0.00,30.2,29.1,00.0,39.2,31.9,09.1,-001.5,0010.21,0004.26,0003.66
2021-10-18 02:23:00,,0824.9,5.00,0.00,30.2,29.1,00.0,39.2,31.9,09.1,-001.6,0010.18,0004.33,0003.71
2021-10-18 02:24:00,,0824.9,4.99,0.00,30.2,29.1,00.0,39.2,31.9,09.1,-002.3,0010.13,0004.30,0003.73
2021-10-18 02:25:00,,0824.9,5.00,0.00,30.2,29.2,00.0,39.2,31.9,09.1,-002.6,0010.05,0004.31,0003.74
2021-10-18 02:26:00,,0824.9,4.99,0.00,30.2,29.2,00.0,39.2,31.9,09.1,-001.9,0010.38,0004.30,0003.72
2021-10-18 02:27:00,,0824.9,5.00,0.00,30.2,29.2,00.0,39.3,31.9,09.1,-002.9,0011.19,0004.33,0003.73
2021-10-18 02:28:00,,0824.9,5.00,0.00,30.2,29.2,00.0,39.3,31.9,09.1,-003.4,0011.36,0004.37,0003.77
2021-10-18 02:29:00,,0824.8,5.00,0.00,30.2,29.2,00.0,39.3,31.9,09.1,-003.8,0010.93,0004.39,0003.80
2021-10-18 02:30:00,,0824.9,5.01,0.00,30.2,29.2,00.0,39.3,31.9,09.0,-000.1,0010.60,0004.43,0003.82
2021-10-18 02:31:00,,0824.9,4.99,0.00,30.2,29.2,00.0,39.3,31.9,09.0,-002.7,0010.67,0004.46,0003.83
2021-10-18 02:32:00,,0824.9,5.01,0.00,30.2,29.2,00.0,39.3,31.9,09.1,-002.0,0010.65,0004.47,0003.84
2021-10-18 02:33:00,,0824.9,5.01,0.00,30.2,29.2,00.0,39.3,31.9,09.1,-001.7,0010.26,0004.46,0003.83
2021-10-18 02:34:00,,0824.9,4.98,0.00,30.2,29.2,00.0,39.3,31.9,09.1,0005.9,0009.97,0004.48,0003.83
2021-10-18 02:35:00,,0824.9,5.00,0.00,30.2,29.1,00.0,39.3,31.9,09.1,0006.1,0009.95,0004.57,0003.85
2021-10-18 02:36:00,,0824.9,5.01,0.00,30.3,29.2,00.0,39.3,31.9,09.1,0005.4,0009.87,0004.60,0003.88
2021-10-18 02:37:00,,0824.9,4.99,0.00,30.3,29.2,00.0,39.3,31.9,09.1,0005.4,0009.49,0004.70,0003.96
2021-10-18 02:38:00,,0824.9,4.99,0.00,30.3,29.2,00.0,39.3,32.0,09.0,0004.4,0008.74,0004.74,0004.02
2021-10-18 02:39:00,,0824.8,5.00,0.00,30.3,29.2,00.0,39.3,32.0,09.0,0003.1,0008.97,0004.81,0004.08
2021-10-18 02:40:00,,0824.8,5.00,0.00,30.3,29.2,00.0,39.4,32.0,09.1,0001.9,0009.98,0004.91,0004.14
2021-10-18 02:41:00,,0824.9,4.99,0.00,30.3,29.2,00.0,39.4,32.0,09.1,0001.7,0010.30,0004.98,0004.19
2021-10-18 02:42:00,,0824.9,4.99,0.00,30.3,29.2,00.0,39.4,32.0,09.1,-000.1,0012.44,0005.02,0004.22
2021-10-18 02:43:00,,0824.9,5.00,0.00,30.3,29.2,00.0,39.4,32.0,09.1,-001.2,0012.75,0005.06,0004.23
2021-10-18 02:44:00,,0824.9,5.01,0.00,30.3,29.3,00.0,39.4,32.0,09.1,-000.5,0013.09,0005.07,0004.24
2021-10-18 02:45:00,,0824.9,4.99,0.00,30.3,29.2,00.0,39.4,32.0,09.1,0000.1,0013.41,0005.03,0004.25
2021-10-18 02:46:00,,0824.8,5.01,0.00,30.3,29.3,00.0,39.4,32.0,09.1,-000.0,0013.57,0005.00,0004.24
2021-10-18 02:47:00,,0824.8,5.00,0.00,30.3,29.3,00.0,39.4,32.0,09.1,0000.0,0014.30,0004.98,0004.22
2021-10-18 02:48:00,,0824.8,5.00,0.00,30.3,29.3,00.0,39.4,32.0,09.1,-000.4,0014.76,0004.94,0004.18
2021-10-18 02:49:00,,0824.8,5.01,0.00,30.3,29.3,00.0,39.4,32.0,09.1,-001.2,0015.52,0004.98,0004.16
2021-10-18 02:50:00,,0824.8,5.01,0.00,30.3,29.3,00.0,39.4,32.0,09.0,-000.8,0016.16,0004.95,0004.13
2021-10-18 02:51:00,,0824.8,5.00,0.00,30.3,29.3,00.0,39.4,32.0,09.0,-000.5,0015.28,0004.85,0004.07
2021-10-18 02:52:00,,0824.7,4.99,0.00,30.3,29.3,00.0,39.4,32.0,09.0,0000.1,0015.51,0004.78,0004.03
2021-10-18 02:53:00,,0824.7,5.01,0.00,30.3,29.3,00.0,39.4,32.0,09.0,0000.8,0014.15,0004.74,0003.99
2021-10-18 02:54:00,,0824.7,4.99,0.00,30.3,29.3,00.0,39.4,32.0,08.9,0001.3,0014.21,0004.73,0003.95
2021-10-18 02:55:00,,0824.7,5.00,0.00,30.3,29.3,00.0,39.4,32.0,08.9,-000.7,0014.02,0004.67,0003.92
2021-10-18 02:56:00,,0824.6,5.01,0.00,30.3,29.3,00.0,39.4,32.0,08.9,-001.2,0014.89,0004.69,0003.89
2021-10-18 02:57:00,,0824.7,5.00,0.00,30.3,29.3,00.0,39.4,32.0,08.8,-001.4,0014.75,0004.66,0003.83
2021-10-18 02:58:00,,0824.6,5.00,0.00,30.3,29.3,00.0,39.4,32.0,08.7,-000.8,0014.33,0004.60,0003.77
2021-10-18 02:59:00,,0824.6,4.98,0.00,30.3,29.3,00.0,39.4,32.0,08.7,-000.6,0013.78,0004.54,0003.71
